Other Public Products
Issued by NWS Grand Forks, ND

Home | Current Version | Previous Version | Graphics & Text | Print | Product List | Glossary On
Versions: 1 2 3 4 5 6 7 8 9 10 11 12 13 14 15 16 17 18 19 20 21 22 23 24 25 26 27 28 29 30 31 32 33 34 35 36 37 38 39 40 41 42 43 44 45 46 47 48 49 50
000
FPUS83 KFGF 180131
OPUFGF
PRAIRIE TO PINES WEATHER ROUNDUP
NATIONAL WEATHER SERVICE EASTERN NORTH DAKOTA/GRAND FORKS ND
800 PM CDT THU AUG 17 2017

 **SATELLITE DATA USED TO AUGMENT SKY COVER AT AUTOMATED STATIONS**
 *****  WEATHER ACROSS EASTERN NORTH DAKOTA  *****

CITY           SKY/WX    TMP DP  RH WIND       PRES   REMARKS
GRAND FORKS    FAIR      77  61  57 E5        29.81F
GRAND FORKS AF PTCLDY    81  63  54 N1        29.88S
GRAND CITY NWS NOT AVBL
BUXTON           N/A     73  59  60 E2          N/A
DEVILS LAKE    FAIR      75  59  57 S3        29.86F
FARGO          FAIR      74  60  61 NE3       29.83F
WAHPETON ARPT  FAIR      68  57  68 N3        29.84F
$$

 *****  WEATHER ACROSS CENTRAL AND WESTERN NORTH DAKOTA  *****

CITY           SKY/WX    TMP DP  RH WIND       PRES   REMARKS
JAMESTOWN      FAIR      71  63  75 E3        29.85F
BISMARCK       FAIR      75  60  59 S6        29.82F
MINOT          FAIR      79  53  40 E8        29.81S
MINOT AFB      FAIR      79  53  40 E15       29.80S
GARRISON         N/A     77  64  64 SE7       29.80S
WILLISTON      FAIR      75  50  41 NE5       29.85S
DICKINSON      FAIR      75  45  34 NW8       29.87S
HETTINGER      MOCLDY    74  58  57 W5        29.90S
$$

 *****  OTHER OBSERVATIONS NORTHEAST NORTH DAKOTA  *****

CITY           SKY/WX    TMP DP  RH WIND       PRES   REMARKS
WALHALLA       FAIR      72  72 100 CALM      29.82S
LANGDON        FAIR      70  66  88 CALM      29.86F
CAVALIER       FAIR      72  64  78 CALM      29.82S
GRAFTON        FAIR      72  64  78 CALM      29.83S
CANDO          FAIR      70  61  73 S5        29.87S
FORT TOTTEN    NOT AVBL
ROLLA          FAIR      70  57  64 CALM      29.88R
RUGBY          FAIR      70  59  68 E7        29.84S
 ***** THE ABOVE OBSERVATIONS ARE NON NWS ARE NOT QUALITY
        CONTROLLED AND MAY MIS-REPORT RAIN FOR SNOW...
$$

 *****  OTHER OBSERVATIONS SOUTHEAST NORTH DAKOTA *****

CITY           SKY/WX    TMP DP  RH WIND       PRES   REMARKS
COOPERSTOWN    FAIR      70  61  73 NE6       29.86S
VALLEY CITY      N/A     73  61  64 SE3       29.86F
OAKES          NOT AVBL
GWINNER        CLEAR     70  66  88 CALM      29.86S
SHEYENNE NWR     N/A     75  62  64 CALM      29.95S
BUFFALO          N/A     73  52  47 CALM        N/A
WYNDMERE       NOT AVBL
 ***** THE ABOVE OBSERVATIONS ARE NON NWS ARE NOT QUALITY
       CONTROLLED AND MAY MIS-REPORT RAIN FOR SNOW...
$$

  *****  WEATHER ACROSS NORTHERN MINNESOTA  *****

CITY           SKY/WX    TMP DP  RH WIND       PRES   REMARKS
FLAG ISLAND    FAIR      73  57  56 CALM      29.80S
WARROAD        FAIR      70  64  83 CALM      29.82S
ROSEAU         FAIR      70  61  73 CALM      29.82S
HALLOCK        FAIR      73  54  49 W5        29.81S
THF RVR FALLS  FAIR      72  58  61 NW5       29.84F
HALSTAD          N/A     71  59  66 NE2         N/A
FOSSTON        FAIR      66  55  68 CALM      29.85S
BAUDETTE       FAIR      69  59  70 W3        29.81S
WASKISH        FAIR      68  57  68 CALM      29.83S
CROOKSTON      FAIR      73  57  56 CALM      29.83F
$$
  *****  WEATHER ACROSS CENTRAL AND WEST MINNESOTA  *****

CITY           SKY/WX    TMP DP  RH WIND       PRES   REMARKS
BEMIDJI        FAIR      66  59  79 CALM      29.85R
PARK RAPIDS    FAIR      71  59  65 N5        29.85R
WADENA         FAIR      64  61  88 CALM      29.85S
DETROIT LAKES  FAIR      70  59  68 NW5       29.87S
MOORHEAD       FAIR      70  61  73 CALM      29.84S
FERGUS FALLS   FAIR      68  61  77 NW6       29.84S
ELBOW LAKE     FAIR      69  62  79 W6        29.86S HAZE
MORRIS MN      FAIR      70  63  78 NW5       29.85S
STAPLES        FAIR      64  57  77 CALM      29.85R
WHEATON        FAIR      70  61  73 CALM      29.86F
$$
  *****  WEATHER ELSEWHERE ACROSS MINNESOTA  *****

CITY           SKY/WX    TMP DP  RH WIND       PRES   REMARKS
DULUTH         CLOUDY    61  60  97 NW12G20   29.77R
INTRNTL FALLS  FAIR      64  59  83 W3        29.81R
ELY            CLOUDY    61  59  94 NW6       29.78R
CLOQUET        CLOUDY    63  57  82 NW8       29.79S
BRAINERD       FAIR      67  57  70 NW10      29.84R
HIBBING        CLOUDY    61  58  90 NW9       29.81R
ALEXANDRIA     FAIR      69  60  73 N6        29.87R
SAINT CLOUD    FAIR      68  61  78 NW6       29.82R
MINNEAPOLIS    MOCLDY    71  60  68 NW8       29.80R
$$

  *****  WEATHER ACROSS SOUTH DAKOTA  *****

CITY           SKY/WX    TMP DP  RH WIND       PRES   REMARKS
SIOUX FALLS    FAIR      72  63  73 CALM      29.89S
BROOKINGS      FAIR      72  62  71 CALM      29.90S
WATERTOWN      FAIR      72  57  59 CALM      29.88S
HURON          FAIR      72  60  66 E7        29.85F
SISSETON         N/A     73  64  73 CALM      29.85S
ABERDEEN       FAIR      71  62  73 E5        29.86F
MITCHELL       FAIR      73  64  73 E7        29.85F
PIERRE         CLOUDY    75  57  53 E15G30    29.82R
MOBRIDGE       FAIR      74  62  66 E9        29.83
RAPID CITY     LGT RAIN  68  51  54 NE17      29.92F
$$

  *****  SOME WEATHER IN NEARBY STATES *****

CITY           SKY/WX    TMP DP  RH WIND       PRES   REMARKS
GLASGOW MT     FAIR      82  38  20 N10       29.90R
GREAT FALLS MT FAIR      83  35  18 CALM      30.00F
CHEYENNE WY    FAIR      77  35  21 NW9G21    30.14S
SCOTTSBLUFF NE FAIR      82  53  36 S7        29.95S
OMAHA NE       FAIR      76  63  64 NW6       29.90F
DES MOINES IA  FAIR      78  59  51 W10       29.86S
DAVENPORT IA   CLOUDY    74  64  71 W10       29.83R
CHICAGO IL     MOCLDY    78  64  61 W20       29.74R
EAU CLAIRE WI  CLOUDY    66  60  81 NW13G23   29.74R
LA CROSSE WI   LGT RAIN  70  65  84 N7        29.76R
$$

  *****  SOME NATIONAL WEATHER *****

CITY           SKY/WX    TMP DP  RH WIND       PRES   REMARKS
LA GUARDIA NY  MOCLDY    75  69  81 SE7       29.98R
RALEIGH NC     MOCLDY    79  74  84 S7        29.98F
ATLANTA GA     FAIR      83  70  64 W7        30.03R
NEW ORLEANS LA MOCLDY    83  76  79 S8        29.99F HX  91
OKLAHOMA CITY  FAIR      83  68  60 S6        29.98R
ALBUQUERQUE NM FAIR      87  30  13 CALM      30.13S
SALT LAKE CITY FAIR      89  37  16 N8        30.07S
LOS ANGELES CA FAIR      71  63  75 W15       29.96S
BOISE ID       FAIR      87  35  15 N8        30.03F
SEATTLE WA     FAIR      75  54  47 SW6       30.15F
$$

*** WEATHER ACROSS MANITOBA...SASKATCHEWAN AND ONTARIO ***
                ***ONTARIO***

CITY           SKY/WX    TMP DP  RH WIND       PRES   REMARKS
GERALDTON      DRIZZLE   57  57 100 NE8       29.75F FOG
THUNDER BAY    CLOUDY    63  61  94 N7        29.65S
SIOUX LOOKOUT  MOCLDY    61  55  82 N3        29.82R
TORONTO        SHOWER    66  64  94 E5        29.77F
BIG TROUT LK   CLOUDY    66  59  77 CALM      29.78S
PICKLE LAKE    MOCLDY    63  54  72 S8        29.83R
DRYDEN         CLEAR     63  55  77 E7        29.82R
KENORA         MOCLDY    72  55  56 W3        29.81S
$$
                *** MANITOBA***

CITY           SKY/WX    TMP DP  RH WIND       PRES   REMARKS
BRANDON        MOCLDY    72  59  64 SW6       29.84S
DAUPHIN        CLEAR     73  59  60 SW6       29.79S
ISLAND LAKE    PTCLDY    70  55  60 SW2       29.75
PILOT MOUND      N/A     72  57  60 NW1         N/A
THE PAS        PTCLDY    73  52  46 W8        29.75S
THOMPSON       MOCLDY    72  48  43 SW5       29.69R
WINNIPEG       PTCLDY    70  55  60 NW5       29.81S
LYNN LAKE      MOCLDY    63  57  82 MISG      29.67R
CHURCHILL      MOCLDY    70  59  68 SE7       29.63S
GILLAM         PTCLDY    72  48  43 S5        29.68R
$$
                ***SASKATCHEWAN***

CITY           SKY/WX    TMP DP  RH WIND       PRES   REMARKS
ESTEVAN        LGT RAIN  73  55  53 N14       29.86R
KINDERSLEY     PTSUNNY   72  45  37 NW7       29.94S
LLOYDMINSTER   MOSUNNY   70  52  52 NW5       29.90S
PRINCE ALBERT  MOSUNNY   73  52  46 W12       29.84S
REGINA         MOSUNNY   75  46  35 NW12G18   29.89R
YORKTON        CLEAR     72  55  56 NW7       29.84S



USA.gov is the U.S. government's official web portal to all federal, state and local government web resources and services.